Simultaneous Nadir Overpasses (SNOs) Predictions

Prediction of SNOs between METOP-B and TERRA Satellite Orbit:

Table of predicted SNOs for the next 14.0 days since TLE Epoch: 12/23/2023
Index Date (METOP-B) Time (METOP-B) Lat,Lon (METOP-B) SZA (METOP-B ) Date (TERRA) Time (TERRA) Lat,Lon (TERRA) SZA (TERRA ) Distance(km) Time Diff (sec)
1 12/23/2023 03:57:10 80.57, 148.16 104.98 12/23/2023 03:56:56 80.58, 148.26 104.99 1.98 14
2 12/25/2023 18:27:38 80.52, -70.23 104.81 12/25/2023 18:28:26 80.50, -70.39 104.80 3.11 48
3 12/25/2023 19:18:16 -80.59, 98.08 75.07 12/25/2023 19:17:45 -80.58, 98.04 75.08 0.85 31
4 12/28/2023 09:48:44 -80.53,-120.37 75.30 12/28/2023 09:49:14 -80.52,-120.49 75.31 2.46 30
5 12/28/2023 10:39:21 80.62, 48.22 104.87 12/28/2023 10:38:33 80.61, 48.08 104.84 2.64 48
6 12/31/2023 01:09:50 80.53,-170.66 104.52 12/31/2023 01:10:02 80.52,-170.70 104.51 1.06 12
7 12/31/2023 02:00:28 -80.60, -2.31 75.35 12/31/2023 01:59:21 -80.60, -2.23 75.36 1.41 67
8 01/02/2024 15:40:16 80.48, -28.94 104.20 01/02/2024 15:41:28 80.47, -29.07 104.21 2.51 72
9 01/02/2024 16:30:54 -80.55, 139.42 75.67 01/02/2024 16:30:47 -80.55, 139.42 75.67 0.20 7
10 01/05/2024 07:01:23 -80.45, -79.56 76.13 01/05/2024 07:02:15 -80.45, -79.46 76.11 1.94 52



Historial Predications of SNOs between METOP-B and TERRA
